Flag for U.S.A. Weather past 2 weeks in Omaha, Nebraska, U.S.A.

Now
59 °F

Sunny.


Feels Like: 57 °F
Forecast: 54 / 68 °F
Wind: 9 mph from Northwest

Location: Millard Airport

Current Time: Sep 21, 2014 at 9:23:55 AM

Latest Report: Sep 21, 2014 at 8:55 AM


Visibility: 10 mi

Pressure: 30.21 "Hg

Humidity: 64%

Dew point: 47 °F

Location of OmahaLocation

Historic Weather in Omaha — Graph

°F

Omaha temperature yesterday

Maximum temperature yesterday: 84 °F (at 4:55 PM)
Minimum temperature yesterday: 69 °F (at 8:55 PM)
Average temperature yesterday: 75 °F

Past Weeks' High & Low Weather Summary

 TemperatureHumidityPressure
High89 °F (Sep 19, 4:15 PM)98% (Sep 13, 6:55 AM)30.47 "Hg (Sep 13, 6:55 AM)
Low38 °F (Sep 13, 7:15 AM)39% (Sep 20, 5:15 PM)29.59 "Hg (Sep 9, 6:55 PM)
Average63 °F78%30.05 "Hg
* Reported Sep 6 8:15 AM — Sep 21 8:15 AM, Omaha, Weather by CustomWeather, © 2014

Note: Actual official high and low records may vary slightly from our data, if they occured in-between our weather recording intervals... More about our weather records

Advertising

Omaha weather history for previous 24 hours

 ConditionsComfort  
Time TempWeatherWind HumidityBarometerVisibility
8:15 AM
Sep 21
57 °FSunny.10 mph70%30.19 "Hg10 mi
7:55 AM56 °FClear.8 mph73%30.18 "Hg10 mi
7:35 AM55 °FClear.6 mph75%30.17 "Hg10 mi
7:15 AM56 °FClear.6 mph73%30.16 "Hg10 mi
6:55 AM56 °FClear.7 mph74%30.15 "Hg10 mi
6:35 AM58 °FClear.7 mph72%30.14 "Hg10 mi
6:15 AM57 °FClear.6 mph78%30.13 "Hg10 mi
5:55 AM56 °FClear.6 mph82%30.12 "Hg10 mi
5:35 AM58 °FClear.5 mph78%30.11 "Hg10 mi
5:15 AM58 °FClear.3 mph78%30.11 "Hg10 mi
4:55 AM58 °FClear.5 mph78%30.10 "Hg10 mi
4:15 AM58 °FClear.5 mph82%30.10 "Hg10 mi
3:55 AM58 °FClear.3 mph84%30.10 "Hg10 mi
3:35 AM58 °FClear.No wind85%30.09 "Hg10 mi
3:15 AM58 °FClear.No wind80%30.09 "Hg10 mi
2:55 AM59 °FClear.3 mph79%30.08 "Hg10 mi
2:35 AM60 °FClear.No wind75%30.08 "Hg10 mi
2:15 AM62 °FClear.3 mph71%30.08 "Hg10 mi
1:55 AM62 °FClear.No wind70%30.08 "Hg10 mi
1:35 AM64 °FClear.No wind64%30.08 "Hg10 mi
1:15 AM66 °FClear.3 mph61%30.07 "Hg10 mi
12:55 AM66 °FClear.No wind60%30.07 "Hg10 mi
12:35 AM67 °FClear.No wind58%30.07 "Hg10 mi
12:15 AM68 °FClear.3 mph56%30.06 "Hg10 mi
11:55 PM
Sep 20
69 °FClear.3 mph54%30.06 "Hg10 mi
11:15 PM71 °FClear.7 mph52%30.05 "Hg10 mi
10:55 PM72 °FClear.8 mph53%30.04 "Hg10 mi
10:15 PM75 °FClear.12 mph47%30.01 "Hg10 mi
9:55 PM73 °FClear.7 mph61%29.99 "Hg10 mi
9:15 PM69 °FClear.No wind78%29.97 "Hg10 mi
8:55 PM69 °FClear.No wind79%29.96 "Hg10 mi
8:35 PM70 °FClear.No wind75%29.94 "Hg10 mi
8:15 PM70 °FSunny.No wind77%29.94 "Hg10 mi
7:55 PM70 °FSunny.No wind75%29.93 "Hg10 mi
7:35 PM73 °FSunny.No wind68%29.93 "Hg10 mi
7:15 PM76 °FSunny.No wind60%29.93 "Hg10 mi
6:55 PM80 °FSunny.No wind49%29.93 "Hg10 mi
6:15 PM82 °FSunny.8 mph45%29.93 "Hg10 mi
5:15 PM84 °FSunny.10 mph39%29.92 "Hg10 mi
4:55 PM84 °FSunny.13 mph41%29.91 "Hg10 mi
4:35 PM84 °FSunny.10 mph40%29.92 "Hg10 mi
3:15 PM84 °FSunny.6 mph48%29.92 "Hg10 mi
2:55 PM84 °FSunny.12 mph46%29.91 "Hg10 mi
2:35 PM84 °FScattered clouds.13 mph53%29.92 "Hg10 mi
2:15 PM83 °FScattered clouds.7 mph58%29.92 "Hg10 mi
1:55 PM82 °FSunny.8 mph60%29.93 "Hg10 mi
1:35 PM82 °FSunny.7 mph59%29.93 "Hg10 mi
1:15 PM81 °FSunny.7 mph65%29.93 "Hg10 mi
12:55 PM80 °FSunny.6 mph68%29.92 "Hg10 mi
Weather by CustomWeather, © 2014

See weather overviewHow to use our weather pages